Location: Buisson
(44.2787°N, 4.9969°E)
Time: 10:04:19
(UTC+00:00)

ISS - Visible Passes

Search period start: 26 September 2021 00:00
Search period end: 06 October 2021 00:00
Orbit: 417 x 422 km, 51.6° (Epoch: 26 September)

Date Brightness Start Highest point End Pass type
(mag) Time Alt. Az. Time Alt. Az. Time Alt. Az.
26 Sep -2.0 19:03:36 10° NW 19:06:23 23° N 19:07:19 21° NNE visible
27 Sep -1.9 18:16:09 10° NW 18:18:54 22° N 18:21:38 10° NE visible
27 Sep -1.4 19:53:08 10° NW 19:54:43 23° NNW 19:54:43 23° NNW visible
28 Sep -2.5 19:05:51 10° NW 19:08:54 30° NNE 19:09:10 30° NNE visible
29 Sep -2.2 18:18:32 10° NW 18:21:27 26° NNE 18:23:39 14° ENE visible
29 Sep -1.3 19:55:15 10° WNW 19:56:37 23° NW 19:56:37 23° NW visible
30 Sep -3.4 19:07:57 10° NW 19:11:09 53° NNE 19:11:09 53° NNE visible
01 Oct -2.9 18:20:41 10° NW 18:23:53 39° NNE 18:25:43 21° E visible
01 Oct -1.0 19:57:33 10° WNW 19:58:42 19° W 19:58:42 19° W visible
02 Oct -3.5 19:10:08 10° WNW 19:13:20 63° SW 19:13:20 63° SW visible
03 Oct -3.8 18:22:49 10° WNW 18:26:11 82° NNE 18:28:03 24° ESE visible
03 Oct -0.5 20:00:37 10° W 20:01:02 12° WSW 20:01:02 12° WSW visible
04 Oct -1.9 19:12:42 10° W 19:15:28 24° SW 19:15:51 23° SSW visible
05 Oct -2.5 18:25:08 10° WNW 18:28:17 38° SW 18:30:48 14° SSE visible
